E1521 Weather Reports


Display with metric or nautical units.
time (UTC)temp
F
wind
direction
speed
MPH
gust
MPH
rain 1hr
in
rain 24hr
in
rain mn
in
humidity
%
barometer
mb
20260510194515 100 269 2.0 8.0 0.00 0.00 0.00 10 1011.7
20260510193515 101 319 0.0 7.0 0.00 0.00 0.00 11 1011.8
20260510192516 100 323 1.0 7.0 0.00 0.00 0.00 10 1011.9
20260510191536 99 287 2.0 6.0 0.00 0.00 0.00 10 1012.0
20260510190517 100 296 2.0 7.0 0.00 0.00 0.00 10 1012.1
20260510185515 99 286 1.0 5.0 0.00 0.00 0.00 9 1012.1
20260510184515 100 311 1.0 4.0 0.00 0.00 0.00 9 1012.3
20260510183516 100 157 1.0 5.0 0.00 0.00 0.00 9 1012.4
20260510182521 99 149 0.0 3.0 0.00 0.00 0.00 10 1012.5
20260510181515 98 267 0.0 3.0 0.00 0.00 0.00 10 1012.6
20260510180516 97 282 1.0 5.0 0.00 0.00 0.00 10 1012.6
20260510175536 97 200 1.0 5.0 0.00 0.00 0.00 10 1012.6
20260510174520 97 119 1.0 3.0 0.00 0.00 0.00 10 1012.7
20260510173517 96 240 0.0 4.0 0.00 0.00 0.00 11 1012.7
20260510172515 95 92 0.0 2.0 0.00 0.00 0.00 11 1012.6
20260510171516 94 135 1.0 5.0 0.00 0.00 0.00 11 1012.6
20260510170537 94 186 0.0 3.0 0.00 0.00 0.00 12 1012.6
20260510165515 94 129 1.0 4.0 0.00 0.00 0.00 13 1012.6
20260510164515 92 301 0.0 1.0 0.00 0.00 0.00 12 1012.6
20260510163516 92 132 0.0 3.0 0.00 0.00 0.00 13 1012.4
20260510162516 92 145 0.0 3.0 0.00 0.00 0.00 13 1012.5
20260510161515 91 186 0.0 1.0 0.00 0.00 0.00 14 1012.4
20260510160518 90 191 0.0 2.0 0.00 0.00 0.00 15 1012.4
20260510155516 88 135 0.0 3.0 0.00 0.00 0.00 16 1012.2
20260510154515 87 141 1.0 3.0 0.00 0.00 0.00 17 1012.2
20260510153515 86 138 1.0 3.0 0.00 0.00 0.00 17 1012.2
20260510152515 85 139 0.0 4.0 0.00 0.00 0.00 18 1012.2
20260510151515 84 127 0.0 3.0 0.00 0.00 0.00 20 1012.2
20260510150536 83 176 0.0 1.0 0.00 0.00 0.00 22 1012.2
20260510145515 80 155 0.0 1.0 0.00 0.00 0.00 23 1012.1
20260510144515 78 134 0.0 2.0 0.00 0.00 0.00 25 1012.1
20260510143517 77 117 1.0 4.0 0.00 0.00 0.00 25 1012.1
20260510142515 76 97 1.0 5.0 0.00 0.00 0.00 24 1012.1
20260510141515 75 100 1.0 4.0 0.00 0.00 0.00 23 1011.9
20260510140515 74 93 0.0 1.0 0.00 0.00 0.00 25 1011.7
20260510135516 73 124 0.0 2.0 0.00 0.00 0.00 25 1011.6
20260510134515 71 137 1.0 3.0 0.00 0.00 0.00 25 1011.5
20260510133516 70 132 2.0 4.0 0.00 0.00 0.00 28 1011.6
20260510132515 69 134 1.0 4.0 0.00 0.00 0.00 28 1011.5
20260510131517 69 113 1.0 3.0 0.00 0.00 0.00 28 1011.3
20260510130515 68 134 2.0 4.0 0.00 0.00 0.00 29 1011.1
20260510125516 67 130 2.0 5.0 0.00 0.00 0.00 29 1010.9
20260510124520 67 124 1.0 3.0 0.00 0.00 0.00 28 1010.9
20260510123515 67 129 1.0 4.0 0.00 0.00 0.00 28 1010.8
20260510122539 68 127 1.0 4.0 0.00 0.00 0.00 27 1010.7
20260510121515 68 128 2.0 4.0 0.00 0.00 0.00 26 1010.6
20260510120535 68 131 1.0 3.0 0.00 0.00 0.00 27 1010.6
20260510115515 68 132 1.0 3.0 0.00 0.00 0.00 28 1010.7
20260510114516 68 93 0.0 3.0 0.00 0.00 0.00 29 1010.7
20260510113537 69 85 0.0 2.0 0.00 0.00 0.00 28 1010.6
20260510112517 68 96 0.0 1.0 0.00 0.00 0.00 28 1010.6
20260510111517 69 145 0.0 2.0 0.00 0.00 0.00 28 1010.6
20260510110538 69 151 0.0 3.0 0.00 0.00 0.00 28 1010.5
20260510105517 69 130 0.0 3.0 0.00 0.00 0.00 27 1010.3
20260510104537 70 140 0.0 1.0 0.00 0.00 0.00 27 1010.3
20260510103517 70 128 0.0 1.0 0.00 0.00 0.00 27 1010.3
20260510102516 70 135 0.0 3.0 0.00 0.00 0.00 25 1010.1
20260510101557 71 127 1.0 2.0 0.00 0.00 0.00 25 1010.1
20260510100517 71 0.0 3.0 0.00 0.00 0.00 25 1010.1
20260510095516 71 130 0.0 2.0 0.00 0.00 0.00 25 1010.0
20260510094516 71 134 0.0 2.0 0.00 0.00 0.00 26 1010.0
20260510093517 72 128 0.0 3.0 0.00 0.00 0.00 25 1010.0
20260510092537 72 130 0.0 3.0 0.00 0.00 0.00 26 1009.9
20260510091516 72 127 0.0 1.0 0.00 0.00 0.00 26 1009.9
20260510090516 72 147 0.0 1.0 0.00 0.00 0.00 26 1009.9
20260510085517 73 0.0 1.0 0.00 0.00 0.00 26 1009.8
20260510084516 74 138 0.0 2.0 0.00 0.00 0.00 24 1009.8
20260510083517 75 119 0.0 1.0 0.00 0.00 0.00 23 1009.7
20260510082516 75 86 0.0 1.0 0.00 0.00 0.00 23 1009.7
20260510081517 76 121 0.0 3.0 0.00 0.00 0.00 22 1009.7
20260510080516 76 137 1.0 5.0 0.00 0.00 0.00 23 1009.7
20260510075537 76 131 1.0 5.0 0.00 0.00 0.00 23 1009.7
20260510074517 77 133 1.0 3.0 0.00 0.00 0.00 24 1009.7
20260510073517 78 41 0.0 1.0 0.00 0.00 0.00 23 1009.6
20260510072516 79 0.0 1.0 0.00 0.00 0.00 22 1009.6
20260510071516 79 352 0.0 1.0 0.00 0.00 0.00 21 1009.6
20260510070517 80 0.0 0.0 0.00 0.00 0.00 21 1009.5
20260510065017 80 0.0 0.0 0.00 0.00 0.00 19 1009.4
20260510064056 81 0.0 0.0 0.00 0.00 0.00 20 1009.3
20260510063016 82 0.0 1.0 0.00 0.00 0.00 19 1009.3
20260510062017 83 343 0.0 1.0 0.00 0.00 0.00 18 1009.3
20260510061016 84 350 0.0 3.0 0.00 0.00 0.00 17 1009.2
20260510060016 83 342 0.0 3.0 0.00 0.00 0.00 19 1009.0
20260510055017 84 354 0.0 1.0 0.00 0.00 0.00 15 1009.0
20260510054019 86 341 0.0 1.0 0.00 0.00 0.00 14 1008.9
20260510053019 86 286 0.0 1.0 0.00 0.00 0.00 14 1008.8
20260510052036 87 0.0 1.0 0.00 0.00 0.00 14 1008.7
20260510051038 88 0.0 1.0 0.00 0.00 0.00 13 1008.7
20260510050016 89 285 0.0 1.0 0.00 0.00 0.00 12 1008.7
20260510045016 89 287 0.0 2.0 0.00 0.00 0.00 12 1008.5
20260510044017 89 285 1.0 2.0 0.00 0.00 0.00 12 1008.4
20260510043016 89 272 0.0 2.0 0.00 0.00 0.00 13 1008.3
20260510042016 89 270 1.0 3.0 0.00 0.00 0.00 13 1008.3
20260510041017 89 274 0.0 2.0 0.00 0.00 0.00 13 1008.2
20260510040016 89 282 0.0 1.0 0.00 0.00 0.00 13 1008.1
20260510035017 90 278 0.0 1.0 0.00 0.00 0.00 14 1008.0
20260510034016 90 283 0.0 1.0 0.00 0.00 0.00 14 1007.9
20260510033016 91 348 0.0 1.0 0.00 0.00 0.00 14 1007.8
20260510032016 92 293 0.0 2.0 0.00 0.00 0.00 13 1007.6
20260510031036 92 280 0.0 2.0 0.00 0.00 0.00 13 1007.5
20260510030018 93 253 0.0 1.0 0.00 0.00 0.00 13 1007.3
20260510025016 94 284 1.0 4.0 0.00 0.00 0.00 12 1007.2
20260510024036 95 277 1.0 4.0 0.00 0.00 0.00 12 1007.1
20260510023017 95 284 2.0 4.0 0.00 0.00 0.00 11 1006.9
20260510022056 96 289 3.0 6.0 0.00 0.00 0.00 11 1006.9
20260510021016 97 292 2.0 5.0 0.00 0.00 0.00 11 1006.8
20260510020036 98 293 3.0 7.0 0.00 0.00 0.00 11 1006.7
20260510015036 99 288 4.0 8.0 0.00 0.00 0.00 10 1006.7
20260510014017 99 287 4.0 10.0 0.00 0.00 0.00 10 1006.6
20260510013017 100 284 4.0 9.0 0.00 0.00 0.00 10 1006.6
20260510012058 100 279 6.0 13.0 0.00 0.00 0.00 10 1006.6
20260510011016 100 294 4.0 10.0 0.00 0.00 0.00 9 1006.6
20260510010015 100 282 4.0 10.0 0.00 0.00 0.00 10 1006.6
20260510005016 100 295 6.0 12.0 0.00 0.00 0.00 9 1006.6
20260510004036 101 306 5.0 10.0 0.00 0.00 0.00 10 1006.6
20260510003016 101 296 4.0 12.0 0.00 0.00 0.00 9 1006.7
20260510002036 101 314 5.0 11.0 0.00 0.00 0.00 9 1006.7
20260510001036 101 321 5.0 13.0 0.00 0.00 0.00 10 1006.7
20260510000036 101 287 1.0 8.0 0.00 0.00 0.00 9 1006.8
20260509235056 101 323 6.0 15.0 0.00 0.00 0.00 10 1006.9
20260509234017 101 312 4.0 12.0 0.00 0.00 0.00 10 1007.0
20260509233015 101 301 6.0 11.0 0.00 0.00 0.00 10 1007.1
20260509232016 101 335 6.0 11.0 0.00 0.00 0.00 10 1007.2
20260509231018 102 275 4.0 9.0 0.00 0.00 0.00 10 1007.3
20260509230016 101 282 4.0 9.0 0.00 0.00 0.00 9 1007.5
20260509225015 101 315 4.0 9.0 0.00 0.00 0.00 10 1007.5
20260509224017 101 292 5.0 10.0 0.00 0.00 0.00 10 1007.7
20260509223015 101 293 5.0 10.0 0.00 0.00 0.00 10 1007.8
20260509222040 101 312 4.0 11.0 0.00 0.00 0.00 10 1008.0
20260509221016 100 301 5.0 10.0 0.00 0.00 0.00 10 1008.2
20260509220016 101 287 4.0 11.0 0.00 0.00 0.00 10 1008.3
20260509215016 100 301 3.0 10.0 0.00 0.00 0.00 11 1008.5
20260509214016 100 279 5.0 11.0 0.00 0.00 0.00 10 1008.6
20260509213016 100 275 3.0 10.0 0.00 0.00 0.00 10 1008.8
20260509212036 100 296 6.0 12.0 0.00 0.00 0.00 10 1009.0
20260509211016 99 303 6.0 12.0 0.00 0.00 0.00 10 1009.1
20260509210016 100 274 3.0 10.0 0.00 0.00 0.00 11 1009.2
20260509205015 99 284 4.0 11.0 0.00 0.00 0.00 11 1009.5
20260509204102 99 290 5.0 12.0 0.00 0.00 0.00 11 1009.6
20260509203016 98 300 6.0 13.0 0.00 0.00 0.00 11 1009.7
20260509202015 98 287 6.0 14.0 0.00 0.00 0.00 11 1009.8
20260509201037 99 287 3.0 9.0 0.00 0.00 0.00 11 1010.0
20260509200015 99 305 4.0 8.0 0.00 0.00 0.00 12 1010.1
20260509195016 99 8 0.0 3.0 0.00 0.00 0.00 13 1010.3